EST,Max TemperatureF,Mean TemperatureF,Min TemperatureF,Max Dew PointF,MeanDew PointF,Min DewpointF,Max Humidity, Mean Humidity, Min Humidity, Max Sea Level PressureIn, Mean Sea Level PressureIn, Min Sea Level PressureIn, Max VisibilityMiles, Mean VisibilityMiles, Min VisibilityMiles, Max Wind SpeedMPH, Mean Wind SpeedMPH, Max Gust SpeedMPH,PrecipitationIn, CloudCover, Events, WindDirDegrees
2013-11-1,60,53,46,56,51,38,100,89,57,29.58,29.26,29.04,10,5,0,35,17,51,0.17,7,Fog-Rain,183
2013-11-2,47,37,27,36,30,16,87,70,58,29.84,29.59,29.36,10,10,10,20,11,25,0.00,5,,282
2013-11-3,34,29,23,16,13,8,72,55,37,30.36,30.11,29.86,10,10,10,23,11,32,0.00,0,,327
2013-11-4,35,28,21,15,14,10,69,58,44,30.69,30.59,30.39,10,10,10,21,9,28,0.00,0,,332
2013-11-5,38,29,20,24,18,14,93,70,41,30.69,30.57,30.38,10,9,0,15,6,22,0.00,3,Fog,160
2013-11-6,49,41,32,39,31,24,82,70,54,30.36,30.14,29.76,10,10,10,18,9,25,T,6,Rain,168
2013-11-7,50,41,31,48,39,21,97,86,59,29.73,29.58,29.49,10,8,0,21,11,28,0.14,8,Fog-Rain,215
2013-11-8,38,33,28,25,22,20,82,68,52,29.70,29.64,29.60,10,9,2,26,10,32,T,6,Snow,270
2013-11-9,32,30,27,25,19,17,81,66,56,30.04,29.89,29.68,10,10,6,30,12,37,T,8,Snow,307
2013-11-10,30,28,26,27,25,18,93,88,66,30.01,29.76,29.66,10,3,1,16,7,20,0.08,8,Snow,90
2013-11-11,32,30,28,27,26,23,93,86,69,29.87,29.78,29.66,10,8,1,22,9,25,0.01,8,Snow,274
2013-11-12,30,25,19,29,18,11,96,78,58,29.88,29.77,29.65,10,8,1,23,14,31,0.02,6,Snow,265
2013-11-13,27,22,17,13,11,9,74,63,51,30.03,29.96,29.85,10,10,8,29,14,37,T,5,Snow,267
2013-11-14,34,27,19,27,23,14,82,75,70,29.94,29.85,29.77,10,10,10,16,8,21,0.00,8,,220
2013-11-15,43,38,33,29,28,27,82,70,56,30.13,30.00,29.93,10,10,10,16,7,23,0.00,7,,207
2013-11-16,47,40,33,30,28,27,76,65,47,30.30,30.25,30.15,10,10,10,9,5,10,0.00,3,,139
2013-11-17,47,38,29,38,32,26,93,80,54,30.32,30.19,29.97,10,9,3,17,11,23,0.14,3,Rain,138
2013-11-18,52,46,39,48,41,28,100,89,60,29.93,29.51,29.30,10,5,0,32,16,46,0.71,7,Fog-Rain,180
2013-11-19,40,32,24,29,19,10,80,66,53,30.01,29.66,29.41,10,7,1,32,17,47,T,7,Snow,279
2013-11-20,27,23,19,12,5,1,71,49,34,30.58,30.40,30.05,10,10,10,35,17,44,0.00,0,,316
2013-11-21,42,29,15,16,11,5,77,50,24,30.57,30.45,30.28,10,10,10,10,4,13,0.00,0,,272
2013-11-22,36,33,29,27,19,12,93,65,41,30.26,29.91,29.64,10,8,2,10,2,12,T,7,Snow,174
2013-11-23,31,23,15,29,21,9,96,80,60,29.63,29.47,29.41,10,4,0,36,18,47,0.16,8,Fog-Snow,276
2013-11-24,16,15,13,10,7,5,80,73,64,29.63,29.43,29.33,10,6,2,35,23,50,T,8,Snow,291
2013-11-25,17,15,12,11,5,1,88,66,50,30.15,29.97,29.60,10,7,2,31,15,46,0.01,5,Snow,258
2013-11-26,31,23,15,22,16,11,89,81,64,30.25,30.13,30.06,10,8,1,12,7,16,0.01,7,Snow,169
2013-11-27,48,36,24,47,32,19,100,92,75,30.17,29.59,29.09,10,3,0,25,14,36,1.17,8,Fog-Rain-Snow,117
2013-11-28,33,22,11,31,21,5,96,84,68,30.18,29.43,29.12,10,6,1,29,15,39,0.05,7,Rain-Snow,280
2013-11-29,18,13,8,9,5,1,87,72,54,30.63,30.43,30.20,10,10,6,20,10,26,T,3,Snow,305
2013-11-30,16,11,6,12,6,1,87,72,57,30.72,30.55,30.32,10,8,1,14,7,18,T,4,Snow,214